[[{"header":{"parameterUnit":"m.s-1","parameterCategory":1,"la1":30.2991,"la2":30.254,"lo1":-89.0895,"lo2":-89.0444,"dy":0.0017,"dx":0.0017,"nx":28,"ny":28,"refTime":"2025-09-02T03:00:00:Z","depth":0,"parameterNumber":2,"parameterNumberName":"U-component_of_WINDS"},"data":[0,0,0,0,0,0,0,0,0,0,0,0,0,0,0,0,0,0,0,0,0,0,0,0,0,0,0,0,0,0,0,0,0,0,0,0,0,0,0,0,0,0,0,0,0,0,0,0,0,0,0,0,0,0,0,0,0,0,-1.1609,-1.1608,0,-1.1576,-1.1575,-1.1575,-1.1528,-1.1527,-1.1527,-1.1526,-1.1492,-1.1492,-1.1491,0,0,0,0,0,0,0,0,0,0,0,0,0,-1.1632,-1.1632,-1.1609,-1.1608,-1.1608,-1.1576,-1.1575,-1.1575,-1.1528,-1.1527,-1.1526,-1.1526,-1.1492,-1.1492,-1.1491,0,0,0,0,0,0,0,0,0,0,0,0,0,-1.1613,-1.1632,-1.1609,-1.1581,-1.1578,-1.1576,-1.1575,-1.1575,-1.1529,-1.1527,-1.1526,-1.1525,-1.1492,-1.1492,-1.1491,-1.1514,0,0,-1.1491,-1.149,0,0,0,0,0,0,0,0,-1.1614,-1.1612,-1.1585,-1.1583,-1.158,-1.1555,-1.1571,-1.1554,-1.1529,-1.1547,-1.1526,-1.1525,-1.1514,-1.1512,-1.1508,-1.1512,-1.1511,-1.1491,-1.149,-1.149,-1.149,0,0,0,0,0,0,0,-1.1616,-1.1613,-1.1596,-1.1585,-1.1582,-1.157,-1.1566,-1.1568,-1.1538,-1.1546,-1.1542,-1.1539,-1.1512,-1.1508,-1.1507,-1.151,-1.1491,-1.149,-1.149,-1.149,-1.1532,-1.1534,0,0,0,0,0,0,-1.1621,-1.1615,-1.1597,-1.1595,-1.1594,-1.1571,-1.1566,-1.1564,-1.1537,-1.1532,-1.154,-1.1537,-1.1509,-1.1507,-1.1505,-1.153,-1.149,-1.149,-1.149,-1.1531,-1.1533,-1.1534,0,0,0,0,0,0,-1.1622,-1.162,-1.1598,-1.1604,-1.16,-1.1572,-1.157,-1.1564,-1.156,-1.1533,-1.1528,-1.1542,-1.1508,-1.1506,-1.1512,-1.1529,-1.149,-1.149,-1.153,-1.1532,-1.1533,-1.158,0,0,0,0,0,0,-1.1623,-1.162,-1.1628,-1.1604,-1.16,-1.1605,-1.1571,-1.1564,-1.156,-1.1556,-1.1533,-1.1529,-1.1507,-1.1513,-1.1512,-1.1528,-1.1489,-1.1528,-1.1531,-1.1533,-1.1577,-1.1584,-1.1589,0,0,0,0,0,-1.1624,-1.1642,-1.1629,-1.1627,-1.1609,-1.1606,-1.1604,-1.1579,-1.1562,-1.1569,-1.1552,-1.1529,-1.1527,-1.1514,-1.1513,-1.1528,-1.1527,-1.153,-1.1533,-1.1575,-1.1582,-1.1589,0,0,0,0,0,0,-1.1668,-1.1639,-1.1623,-1.1635,-1.1624,-1.1598,-1.1607,-1.1588,-1.1581,-1.1577,-1.1546,-1.1542,-1.1552,-1.1541,-1.1527,-1.1549,-1.1524,-1.1526,-1.1556,-1.1563,-1.1569,-1.1571,-1.1489,0,0,0,0,0,-1.168,-1.168,-1.1654,-1.1667,-1.1662,-1.1636,-1.1634,-1.1616,-1.1602,-1.1597,-1.158,-1.1569,-1.1566,-1.1564,-1.1559,-1.1576,-1.1571,-1.1586,-1.1592,-1.1597,-1.16,-1.1609,-1.1615,-1.1544,-1.1544,-1.1543,0,0,-1.1703,-1.1687,-1.1688,-1.1675,-1.1664,-1.1665,-1.1632,-1.1634,-1.1635,-1.1597,-1.1603,-1.1591,-1.1575,-1.1587,-1.1592,-1.1578,-1.1619,-1.1601,-1.1605,-1.1605,-1.1612,-1.1619,-1.1625,-1.1545,-1.1545,-1.1545,0,0,-1.1745,-1.1733,-1.1743,-1.1733,-1.1717,-1.17,-1.1703,-1.1681,-1.1671,-1.1676,-1.1649,-1.1649,-1.1644,-1.1635,-1.163,-1.1671,-1.165,-1.1671,-1.1701,-1.1711,-1.1716,-1.1721,-1.1736,-1.1742,-1.1673,-1.1674,-1.1674,0,-1.1776,-1.1776,-1.175,-1.1754,-1.175,-1.1717,-1.1727,-1.1719,-1.1703,-1.17,-1.1686,-1.1679,-1.1667,-1.1677,-1.1687,-1.1684,-1.1686,-1.1672,-1.1718,-1.1722,-1.1726,-1.174,-1.1746,-1.1676,-1.1676,-1.1676,-1.1675,0,-1.1815,-1.1816,-1.1825,-1.1811,-1.1808,-1.1815,-1.179,-1.179,-1.1773,-1.1758,-1.1764,-1.1749,-1.1741,-1.1742,-1.1725,-1.175,-1.1742,-1.1723,-1.1697,-1.1736,-1.1749,-1.1754,-1.168,-1.1679,-1.1678,-1.1678,0,0,-1.1883,-1.1855,-1.1859,-1.1853,-1.1834,-1.1834,-1.1841,-1.1834,-1.1834,-1.1825,-1.183,-1.1827,-1.181,-1.1804,-1.1786,-1.1794,-1.1829,-1.1774,-1.1773,-1.1785,-1.1856,-1.187,-1.1877,-1.1815,-1.1816,-1.1817,-1.1857,0,-1.1922,-1.193,-1.1908,-1.1923,-1.1924,-1.1894,-1.19,-1.1889,-1.1876,-1.1875,-1.186,-1.1859,-1.1836,-1.1832,-1.1839,-1.1823,-1.1843,-1.182,-1.1819,-1.182,-1.1824,-1.1883,-1.1898,-1.1937,-1.1862,-1.1863,-1.1864,0,-1.1967,-1.1961,-1.1976,-1.1958,-1.1957,-1.1962,-1.1955,-1.1954,-1.1942,-1.1932,-1.1927,-1.1906,-1.1912,-1.1887,-1.1895,-1.188,-1.1879,-1.1871,-1.1872,-1.1871,-1.1844,-1.1884,-1.1949,-1.1955,-1.1871,-1.187,-1.187,0,-1.2016,-1.2011,-1.2019,-1.2015,-1.1994,-1.1998,-1.199,-1.1977,-1.1974,-1.1968,-1.1966,-1.1961,-1.1958,-1.1954,-1.1933,-1.1917,-1.1943,-1.1917,-1.1935,-1.1936,-1.1941,-1.1941,-1.2007,-1.1941,-1.1941,-1.1941,-1.1941,0,-1.2061,-1.2072,-1.2041,-1.2046,-1.2057,-1.2032,-1.2044,-1.2033,-1.2022,-1.2024,-1.1999,-1.2002,-1.1974,-1.1974,-1.1958,-1.1967,-1.1966,-1.1958,-1.1954,-1.196,-1.1961,-1.1959,-1.1955,-1.1943,-1.1942,-1.1942,-1.1942,0,-1.2117,-1.2097,-1.2104,-1.2084,-1.2079,-1.2088,-1.2071,-1.2076,-1.2061,-1.2065,-1.2065,-1.2042,-1.2042,-1.2021,-1.2016,-1.2005,-1.2021,-1.2011,-1.2025,-1.2022,-1.2041,-1.204,-1.2108,-1.2116,-1.2045,-1.2046,-1.2046,0,-1.2147,-1.2154,-1.2135,-1.2135,-1.2128,-1.2129,-1.2127,-1.2103,-1.2102,-1.209,-1.2096,-1.2093,-1.209,-1.2091,-1.2074,-1.207,-1.206,-1.2085,-1.206,-1.2067,-1.2061,-1.2061,-1.2062,-1.209,-1.209,-1.2091,-1.2092,0,-1.2202,-1.2192,-1.219,-1.2185,-1.2184,-1.2178,-1.2171,-1.2173,-1.2147,-1.2147,-1.2147,-1.2144,-1.214,-1.2138,-1.2132,-1.2123,-1.2104,-1.21,-1.2104,-1.2111,-1.2118,-1.2115,-1.2039,-1.2098,-1.2098,-1.2097,-1.2097,-1.2097,-1.2246,-1.2251,-1.2239,-1.2238,-1.2231,-1.2226,-1.2229,-1.2216,-1.2215,-1.2209,-1.2195,-1.2197,-1.2187,-1.2176,-1.217,-1.2171,-1.2159,-1.2165,-1.2166,-1.2168,-1.2172,-1.2119,-1.217,-1.217,-1.2169,-1.2169,-1.2169,0,-1.23,-1.2291,-1.2291,-1.2282,-1.2282,-1.2264,-1.2256,-1.2257,-1.2259,-1.225,-1.2248,-1.2248,-1.2247,-1.2231,-1.2227,-1.2232,-1.2223,-1.2232,-1.2231,-1.223,-1.2183,-1.218,-1.2239,-1.2239,-1.2239,-1.2239,-1.2239,-1.2239,-1.2328,-1.2337,-1.2326,-1.2332,-1.2323,-1.2324,-1.2322,-1.2317,-1.231,-1.2311,-1.231,-1.23,-1.2289,-1.2285,-1.2283,-1.2279,-1.2279,-1.2291,-1.2283,-1.224,-1.2233,-1.2226,-1.2223,-1.2291,-1.2291,-1.233,-1.233,-1.233]},{"header":{"parameterUnit":"m.s-1","parameterCategory":1,"la1":30.2991,"la2":30.254,"lo1":-89.0895,"lo2":-89.0444,"dy":0.0017,"dx":0.0017,"nx":28,"ny":28,"refTime":"2025-09-02T03:00:00:Z","depth":0,"parameterNumber":3,"parameterNumberName":"V-component_of_WINDS"},"data":[0,0,0,0,0,0,0,0,0,0,0,0,0,0,0,0,0,0,0,0,0,0,0,0,0,0,0,0,0,0,0,0,0,0,0,0,0,0,0,0,0,0,0,0,0,0,0,0,0,0,0,0,0,0,0,0,0,0,3.0841,3.0841,0,3.0835,3.0835,3.0835,3.089,3.0892,3.0893,3.0895,3.0882,3.0881,3.0879,0,0,0,0,0,0,0,0,0,0,0,0,0,3.0895,3.0894,3.0841,3.0841,3.0841,3.0835,3.0835,3.0835,3.089,3.0892,3.0894,3.0895,3.0883,3.0881,3.0879,0,0,0,0,0,0,0,0,0,0,0,0,0,3.0878,3.0893,3.0841,3.0868,3.087,3.0835,3.0835,3.0835,3.089,3.0892,3.0894,3.0896,3.0884,3.0881,3.0879,3.0816,0,0,3.087,3.0869,0,0,0,0,0,0,0,0,3.0879,3.0876,3.0864,3.0866,3.0869,3.0866,3.085,3.0828,3.0889,3.0882,3.0895,3.0898,3.0875,3.0873,3.0867,3.0815,3.0815,3.087,3.0869,3.0867,3.0867,0,0,0,0,0,0,0,3.088,3.0877,3.0839,3.0864,3.0866,3.0878,3.0879,3.0846,3.0865,3.0883,3.0887,3.0886,3.0876,3.0869,3.0867,3.0814,3.087,3.0868,3.0866,3.0865,3.0711,3.0709,0,0,0,0,0,0,3.0879,3.0877,3.0839,3.0838,3.088,3.0876,3.0876,3.0864,3.0866,3.0868,3.0884,3.0888,3.0872,3.087,3.0866,3.0793,3.0867,3.0865,3.0863,3.0713,3.071,3.0708,0,0,0,0,0,0,3.088,3.0875,3.0839,3.0859,3.0856,3.0872,3.0859,3.0863,3.0856,3.0867,3.087,3.0873,3.0874,3.087,3.0828,3.0793,3.0864,3.0861,3.0716,3.0712,3.0709,3.0644,0,0,0,0,0,0,3.0881,3.0875,3.0852,3.0858,3.0854,3.0802,3.0857,3.0861,3.0852,3.0858,3.0857,3.0859,3.0876,3.0832,3.0826,3.0791,3.0859,3.072,3.0715,3.071,3.065,3.0639,3.063,0,0,0,0,0,3.0883,3.0833,3.0851,3.0846,3.0827,3.08,3.0798,3.0819,3.0849,3.0825,3.0832,3.0859,3.0798,3.0827,3.0821,3.0784,3.0722,3.0716,3.0711,3.0654,3.0641,3.063,0,0,0,0,0,0,3.082,3.0834,3.0854,3.0805,3.0801,3.081,3.0781,3.0804,3.0791,3.0796,3.0822,3.0821,3.0775,3.0776,3.0808,3.0723,3.0765,3.0758,3.0724,3.0712,3.0702,3.0702,3.0857,0,0,0,0,0,3.0801,3.078,3.0793,3.0748,3.0745,3.0763,3.0753,3.077,3.0766,3.0764,3.0768,3.0762,3.0741,3.0727,3.0709,3.0651,3.0651,3.0622,3.0612,3.0604,3.0597,3.0566,3.0553,3.0689,3.0689,3.0689,0,0,3.076,3.0765,3.075,3.0736,3.0735,3.0711,3.0761,3.0734,3.0716,3.0759,3.072,3.0723,3.0718,3.0668,3.0646,3.0667,3.056,3.0597,3.059,3.0588,3.0559,3.0546,3.0535,3.0685,3.0686,3.0687,0,0,3.0673,3.0676,3.0639,3.0638,3.0637,3.0649,3.064,3.0645,3.0649,3.0611,3.0643,3.0622,3.0586,3.0581,3.0573,3.0486,3.051,3.048,3.0426,3.0396,3.0385,3.0376,3.0344,3.0332,3.0473,3.0473,3.0472,0,3.0622,3.0589,3.0616,3.0587,3.058,3.062,3.0582,3.0579,3.0571,3.0564,3.0588,3.0545,3.0544,3.0493,3.0472,3.0465,3.0454,3.0479,3.0385,3.0376,3.0367,3.0337,3.0325,3.0469,3.0469,3.047,3.047,0,3.0526,3.0503,3.0473,3.0467,3.0456,3.0422,3.0443,3.0428,3.0446,3.0456,3.0416,3.0417,3.04,3.0389,3.0406,3.034,3.0354,3.0381,3.0423,3.035,3.0322,3.0311,3.0463,3.0465,3.0466,3.0467,0,0,3.0398,3.0409,3.0397,3.0395,3.0397,3.0379,3.0347,3.0332,3.0318,3.0312,3.0284,3.0254,3.028,3.0271,3.0288,3.0262,3.0192,3.0292,3.0293,3.0273,3.0119,3.0097,3.0083,3.0209,3.0206,3.0205,3.0119,0,3.0313,3.0261,3.0285,3.0229,3.0207,3.0246,3.0218,3.0216,3.0224,3.0205,3.0214,3.0191,3.0228,3.0223,3.0199,3.0205,3.0161,3.0212,3.0181,3.018,3.018,3.0069,3.0046,2.9965,3.0108,3.0106,3.0105,0,3.0207,3.0198,3.0141,3.0148,3.0139,3.0114,3.0102,3.0085,3.0083,3.009,3.0082,3.0105,3.0072,3.0116,3.007,3.0105,3.0094,3.0095,3.0093,3.0089,3.0137,3.0061,2.9939,2.9927,3.0088,3.0089,3.0091,0,3.0118,3.0092,3.0054,3.0051,3.0058,3.0039,3.0041,3.0042,3.0031,3.0021,3.0014,2.9999,2.999,2.9978,2.9995,3.0025,2.9947,2.9992,2.9951,2.995,2.9931,2.9932,2.9805,2.9926,2.9927,2.9927,2.9927,0,3.002,2.9983,3.0015,2.9991,2.9951,2.9978,2.9937,2.9943,2.9943,2.992,2.9952,2.993,2.9956,2.9935,2.9949,2.9909,2.9905,2.9909,2.9913,2.9905,2.9904,2.9897,2.9903,2.9924,2.9924,2.9925,2.9926,0,2.9913,2.9933,2.9894,2.9905,2.9907,2.9877,2.9885,2.9863,2.9875,2.9845,2.984,2.9857,2.9834,2.9852,2.9829,2.9838,2.9785,2.9798,2.9787,2.9789,2.9747,2.9751,2.961,2.9592,2.9726,2.9725,2.9724,0,2.9848,2.9821,2.983,2.9818,2.9819,2.9799,2.9789,2.9815,2.9804,2.98,2.9778,2.9759,2.9745,2.9707,2.9716,2.9699,2.9711,2.9662,2.9708,2.9701,2.9708,2.9709,2.9706,2.9652,2.9651,2.965,2.9649,0,2.9732,2.9743,2.9729,2.9718,2.9707,2.9699,2.9693,2.9681,2.9708,2.9693,2.9672,2.9661,2.964,2.962,2.9606,2.9606,2.9631,2.9635,2.9624,2.9615,2.961,2.9611,2.976,2.9637,2.9638,2.9639,2.964,2.964,2.9643,2.9621,2.9624,2.9607,2.9606,2.9601,2.9581,2.9591,2.9574,2.956,2.9576,2.955,2.9548,2.9533,2.953,2.9509,2.9529,2.9514,2.951,2.9505,2.9499,2.9615,2.9507,2.9507,2.9508,2.9508,2.9508,0,2.9527,2.9532,2.9516,2.9509,2.9495,2.9523,2.9518,2.9504,2.9482,2.9479,2.9466,2.9441,2.9423,2.9431,2.9414,2.9396,2.9407,2.939,2.9391,2.9391,2.9483,2.9493,2.9382,2.9382,2.9382,2.9382,2.9382,2.9382,2.9465,2.9429,2.9441,2.9404,2.9409,2.9385,2.938,2.9375,2.9373,2.9345,2.9331,2.9337,2.9338,2.9322,2.9306,2.9309,2.9301,2.928,2.9286,2.9372,2.9384,2.9396,2.9406,2.9278,2.9278,2.9196,2.9195,2.9195]}]]